H1 CPF 2 NER 2024 11 18 9 323 01 glonass140 H2 1903001 9140 44299 2024 11 18 0 0 0 2024 11 21 23 45 0 900 1 1 0 0 0 1 H9 10 0 60632 0.00000 0 23433306.064 -9700222.428 -2777342.896 10 0 60632 900.00000 0 22893803.510 -9569297.921 -5923795.774 10 0 60632 1800.00000 0 22040341.424 -9201902.275 -8955194.986 10 0 60632 2700.00000 0 20918954.784 -8565304.461 -11812616.142 10 0 60632 3600.00000 0 19583355.882 -7637414.958 -14440483.929 10 0 60632 4500.00000 0 18092647.417 -6407983.987 -16787657.806 10 0 60632 5400.00000 0 16508826.816 -4879305.600 -18808432.781 10 0 60632 6300.00000 0 14894186.726 -3066395.988 -20463435.323 10 0 60632 7200.00000 0 13308721.085 -996636.477 -21720396.522 10 0 60632 8100.00000 0 11807645.917 1291105.733 -22554787.062 10 0 60632 9000.00000 0 10439139.183 3747844.040 -22950301.305 10 0 60632 9900.00000 0 9242394.774 6316270.451 -22899180.704 10 0 60632 10800.00000 0 8246072.421 8932911.191 -22402369.963 10 0 60632 11700.00000 0 7467208.581 11530550.812 -21469502.529 10 0 60632 12600.00000 0 6910633.850 14040824.157 -20118715.417 10 0 60632 13500.00000 0 6568920.986 16396868.280 -18376296.689 10 0 60632 14400.00000 0 6422865.110 18535923.712 -16276172.211 10 0 60632 15300.00000 0 6442475.055 20401776.312 -13859241.656 10 0 60632 16200.00000 0 6588433.000 21946937.557 -11172576.770 10 0 60632 17100.00000 0 6813959.614 23134472.056 -8268497.808 10 0 60632 18000.00000 0 7067004.574 23939395.907 -5203546.708 10 0 60632 18900.00000 0 7292668.449 24349587.731 -2037377.728 10 0 60632 19800.00000 0 7435752.143 24366174.909 1168411.997 10 0 60632 20700.00000 0 7443324.738 24003379.854 4351488.192 10 0 60632 21600.00000 0 7267200.018 23287834.071 7449997.140 10 0 60632 22500.00000 0 6866216.031 22257390.297 10403770.899 10 0 60632 23400.00000 0 6208220.794 20959484.062 13155496.053 10 0 60632 24300.00000 0 5271679.906 19449114.859 15651823.149 10 0 60632 25200.00000 0 4046838.133 17786532.690 17844395.479 10 0 60632 26100.00000 0 2536386.012 16034727.690 19690777.789 10 0 60632 27000.00000 0 755603.400 14256828.207 21155267.828 10 0 60632 27900.00000 0 -1268026.259 12513515.932 22209576.167 10 0 60632 28800.00000 0 -3495715.147 10860565.363 22833362.329 10 0 60632 29700.00000 0 -5878746.894 9346609.255 23014618.134 10 0 60632 30600.00000 0 -8360272.585 8011221.883 22749891.908 10 0 60632 31500.00000 0 -10877453.359 6883398.542 22044350.017 10 0 60632 32400.00000 0 -13363861.945 5980493.196 20911675.004 10 0 60632 33300.00000 0 -15752044.844 5307657.225 19373802.359 10 0 60632 34200.00000 0 -17976140.222 4857801.563 17460500.671 10 0 60632 35100.00000 0 -19974444.142 4612083.001 15208802.635 10 0 60632 36000.00000 0 -21691819.637 4540893.781 12662296.984 10 0 60632 36900.00000 0 -23081849.220 4605312.779 9870294.030 10 0 60632 37800.00000 0 -24108641.724 4758957.349 6886879.901 10 0 60632 38700.00000 0 -24748218.290 4950158.039 3769876.797 10 0 60632 39600.00000 0 -24989419.448 5124364.718 579728.685 10 0 60632 40500.00000 0 -24834295.016 5226682.595 -2621666.500 10 0 60632 41400.00000 0 -24297959.891 5204430.909 -5772155.784 10 0 60632 42300.00000 0 -23407921.163 5009615.650 -8810537.882 10 0 60632 43200.00000 0 -22202904.124 4601211.042 -11677754.093 10 0 60632 44100.00000 0 -20731225.870 3947152.212 -14318039.853 10 0 60632 45000.00000 0 -19048784.325 3025953.467 -16680014.051 10 0 60632 45900.00000 0 -17216746.779 1827882.162 -18717684.458 10 0 60632 46800.00000 0 -15299034.771 355636.811 -20391349.217 10 0 60632 47700.00000 0 -13359710.779 -1375501.069 -21668376.393 10 0 60632 48600.00000 0 -11460376.353 -3338049.744 -22523846.042 10 0 60632 49500.00000 0 -9657690.777 -5493230.463 -22941041.932 10 0 60632 50400.00000 0 -8001114.369 -7792354.884 -22911783.013 10 0 60632 51300.00000 0 -6530970.918 -10178640.011 -22436587.845 10 0 60632 52200.00000 0 -5276910.361 -12589375.836 -21524668.468 10 0 60632 53100.00000 0 -4256835.851 -14958355.750 -20193753.499 10 0 60632 54000.00000 0 -3476339.748 -17218468.553 -18469743.638 10 0 60632 54900.00000 0 -2928671.483 -19304343.827 -16386206.050 10 0 60632 55800.00000 0 -2595237.689 -21154939.926 -13983717.436 10 0 60632 56700.00000 0 -2446612.385 -22715966.076 -11309068.658 10 0 60632 57600.00000 0 -2444013.224 -23942036.918 -8414346.704 10 0 60632 58500.00000 0 -2541180.011 -24798469.069 -5355912.436 10 0 60632 59400.00000 0 -2686574.522 -25262644.407 -2193294.740 10 0 60632 60300.00000 0 -2825807.031 -25324883.215 1011976.526 10 0 60632 61200.00000 0 -2904185.403 -24988791.135 4197575.065 10 0 60632 62100.00000 0 -2869277.569 -24271066.292 7301595.830 10 0 60632 63000.00000 0 -2673377.928 -23200775.823 10263761.407 10 0 60632 63900.00000 0 -2275772.603 -21818133.425 13026593.090 10 0 60632 64800.00000 0 -1644707.357 -20172830.476 15536523.706 10 0 60632 65700.00000 0 -758974.899 -18321991.687 17744930.792 10 0 60632 66600.00000 0 390945.361 -16327841.739 19609070.597 10 0 60632 67500.00000 0 1802243.065 -14255180.792 21092895.697 10 0 60632 68400.00000 0 3459655.250 -12168774.248 22167741.539 10 0 60632 69300.00000 0 5335872.595 -10130765.100 22812869.820 10 0 60632 70200.00000 0 7392457.000 -8198215.719 23015859.467 10 0 60632 71100.00000 0 9581232.956 -6420880.110 22772838.718 10 0 60632 72000.00000 0 11846095.643 -4839297.826 22088554.632 10 0 60632 72900.00000 0 14125161.722 -3483287.250 20976279.183 10 0 60632 73800.00000 0 16353174.731 -2370899.374 19457553.792 10 0 60632 74700.00000 0 18464066.420 -1507874.287 17561776.956 10 0 60632 75600.00000 0 20393568.836 -887621.872 15325642.299 10 0 60632 76500.00000 0 22081769.645 -491726.649 12792436.990 10 0 60632 77400.00000 0 23475505.098 -290955.084 10011213.114 10 0 60632 78300.00000 0 24530491.448 -246722.815 7035846.925 10 0 60632 79200.00000 0 25213105.995 -312960.052 3924003.273 10 0 60632 80100.00000 0 25501743.178 -438296.622 736024.477 10 0 60632 81000.00000 0 25387688.442 -568474.531 -2466235.353 10 0 60632 81900.00000 0 24875472.602 -648886.074 -5620608.207 10 0 60632 82800.00000 0 23982690.944 -627129.930 -8665819.036 10 0 60632 83700.00000 0 22739293.763 -455476.603 -11542677.922 10 0 60632 84600.00000 0 21186377.180 -93138.088 -14195234.084 10 0 60632 85500.00000 0 19374524.207 491755.347 -16571868.745 10 0 60633 0.00000 0 17361765.157 1320556.114 -18626304.984 10 0 60633 900.00000 0 15211241.331 2402947.641 -20318515.486 10 0 60633 1800.00000 0 12988672.272 3736289.257 -21615507.360 10 0 60633 2700.00000 0 10759728.897 5305488.542 -22491972.030 10 0 60633 3600.00000 0 8587424.986 7083407.270 -22930784.378 10 0 60633 4500.00000 0 6529635.075 9031785.988 -22923342.206 10 0 60633 5400.00000 0 4636842.659 11102649.831 -22469738.916 10 0 60633 6300.00000 0 2950212.745 13240137.865 -21578765.693 10 0 60633 7200.00000 0 1500069.085 15382680.171 -20267742.856 10 0 60633 8100.00000 0 304839.383 17465432.002 -18562183.366 10 0 60633 9000.00000 0 -629488.078 19422863.321 -16495294.845 10 0 60633 9900.00000 0 -1309374.543 21191395.108 -14107329.707 10 0 60633 10800.00000 0 -1753208.443 22711971.691 -11444796.178 10 0 60633 11700.00000 0 -1990274.058 23932460.878 -8559545.818 10 0 60633 12600.00000 0 -2059256.269 24809780.770 -5507755.891 10 0 60633 13500.00000 0 -2006346.241 25311663.741 -2348827.084 10 0 60633 14400.00000 0 -1883029.855 25417983.461 855781.075 10 0 60633 15300.00000 0 -1743654.060 25121589.397 4043753.476 10 0 60633 16200.00000 0 -1642875.614 24428614.302 7153137.006 10 0 60633 17100.00000 0 -1633101.407 23358242.499 10123548.025 10 0 60633 18000.00000 0 -1762029.565 21941949.648 12897345.689 10 0 60633 18900.00000 0 -2070395.883 20222246.900 15420748.103 10 0 60633 19800.00000 0 -2590021.032 18250982.973 17644869.855 10 0 60633 20700.00000 0 -3342240.964 16087275.945 19526661.259 10 0 60633 21600.00000 0 -4336786.490 13795161.593 21029732.014 10 0 60633 22500.00000 0 -5571159.023 11441056.392 22125044.428 10 0 60633 23400.00000 0 -7030528.653 9091140.478 22791464.017 10 0 60633 24300.00000 0 -8688158.972 6808768.605 23016158.056 10 0 60633 25200.00000 0 -10506341.327 4652015.527 22794835.488 10 0 60633 26100.00000 0 -12437800.208 2671456.294 22131824.377 10 0 60633 27000.00000 0 -14427512.104 908272.051 21039985.892 10 0 60633 27900.00000 0 -16414863.267 -607241.648 19540466.603 10 0 60633 28800.00000 0 -18336057.723 -1856703.517 17662293.588 10 0 60633 29700.00000 0 -20126676.526 -2834170.788 15441819.549 10 0 60633 30600.00000 0 -21724282.749 -3546138.274 12922027.787 10 0 60633 31500.00000 0 -23070964.460 -4011013.117 10151709.450 10 0 60633 32400.00000 0 -24115710.139 -4258087.770 7184527.932 10 0 60633 33300.00000 0 -24816517.486 -4326054.604 4077987.542 10 0 60633 34200.00000 0 -25142147.217 -4261124.726 892325.631 10 0 60633 35100.00000 0 -25073447.891 -4114830.325 -2310650.859 10 0 60633 36000.00000 0 -24604195.405 -3941603.326 -5468762.222 10 0 60633 36900.00000 0 -23741410.905 -3796232.843 -8520662.912 10 0 60633 37800.00000 0 -22505142.604 -3731309.282 -11407034.966 10 0 60633 38700.00000 0 -20927719.485 -3794763.801 -14071744.374 10 0 60633 39600.00000 0 -19052507.047 -4027608.074 -16462937.443 10 0 60633 40500.00000 0 -16932216.305 -4461971.007 -18534055.318 10 0 60633 41400.00000 0 -14626836.027 -5119516.724 -20244746.471 10 0 60633 42300.00000 0 -12201274.199 -6010312.089 -21561658.916 10 0 60633 43200.00000 0 -9722806.888 -7132193.121 -22459096.334 10 0 60633 44100.00000 0 -7258440.867 -8470658.652 -22919524.993 10 0 60633 45000.00000 0 -4872299.966 -9999297.238 -22933921.229 10 0 60633 45900.00000 0 -2623144.176 -11680730.810 -22501952.409 10 0 60633 46800.00000 0 -562124.868 -13468036.656 -21631987.518 10 0 60633 47700.00000 0 1269130.306 -15306588.914 -20340936.835 10 0 60633 48600.00000 0 2840023.270 -17136242.938 -18653923.544 10 0 60633 49500.00000 0 4132019.762 -18893771.110 -16603793.447 10 0 60633 50400.00000 0 5139169.520 -20515447.839 -14230472.259 10 0 60633 51300.00000 0 5868091.777 -21939674.905 -11580183.069 10 0 60633 52200.00000 0 6337428.083 -23109536.445 -8704539.487 10 0 60633 53100.00000 0 6576787.139 -23975175.627 -5659532.676 10 0 60633 54000.00000 0 6625227.924 -24495892.653 -2504432.691 10 0 60633 54900.00000 0 6529346.976 -24641875.476 699373.625 10 0 60633 55800.00000 0 6341052.496 -24395490.326 3889584.583 10 0 60633 56700.00000 0 6115121.054 -23752077.901 7004201.118 10 0 60633 57600.00000 0 5906641.664 -22720222.150 9982735.355 10 0 60633 58500.00000 0 5768456.466 -21321480.956 12767386.146 10 0 60633 59400.00000 0 5748706.909 -19589590.753 15304158.562 10 0 60633 60300.00000 0 5888589.514 -17569179.128 17543905.739 10 0 60633 61200.00000 0 6220415.921 -15314039.896 19443273.356 10 0 60633 62100.00000 0 6766058.812 -12885043.069 20965529.302 10 0 60633 63000.00000 0 7535848.783 -10347766.910 22081263.578 10 0 60633 63900.00000 0 8527968.210 -7769950.318 22768946.091 10 0 60633 64800.00000 0 9728367.360 -5218870.734 23015332.791 10 0 60633 65700.00000 0 11111206.347 -2758755.289 22815713.435 10 0 60633 66600.00000 0 12639804.770 -448331.274 22173996.977 10 0 60633 67500.00000 0 14268060.021 1661384.077 21102633.491 10 0 60633 68400.00000 0 15942275.968 3528964.480 19622374.241 10 0 60633 69300.00000 0 17603326.744 5124049.691 17761874.261 10 0 60633 70200.00000 0 19189066.543 6428354.977 15557144.545 10 0 60633 71100.00000 0 20636885.890 7436174.231 13050863.538 10 0 60633 72000.00000 0 21886308.552 8154356.741 10291560.256 10 0 60633 72900.00000 0 22881521.154 8601759.290 7332683.780 10 0 60633 73800.00000 0 23573729.982 8808197.044 4231576.147 10 0 60633 74700.00000 0 23923246.091 8812937.500 1048367.753 10 0 60633 75600.00000 0 23901210.877 8662800.989 -2155183.882 10 0 60633 76500.00000 0 23490888.827 8409947.874 -5316889.795 10 0 60633 77400.00000 0 22688472.074 8109445.914 -8375336.515 10 0 60633 78300.00000 0 21503361.642 7816720.845 -11271080.639 10 0 60633 79200.00000 0 19957912.123 7584998.295 -13947807.510 10 0 60633 80100.00000 0 18086649.102 7462845.862 -16353430.993 10 0 60633 81000.00000 0 15934990.778 7491920.045 -18441112.469 10 0 60633 81900.00000 0 13557526.144 7705014.308 -20170178.749 10 0 60633 82800.00000 0 11015920.818 8124491.873 -21506920.556 10 0 60633 83700.00000 0 8376537.323 8761170.711 -22425255.635 10 0 60633 84600.00000 0 5707868.610 9613709.076 -22907243.222 10 0 60633 85500.00000 0 3077891.611 10668518.813 -22943439.492 10 0 60634 0.00000 0 551451.135 11900211.215 -22533086.813 10 0 60634 900.00000 0 -1812218.314 13272558.446 -21684132.464 10 0 60634 1800.00000 0 -3961726.315 14739929.247 -20413076.829 10 0 60634 2700.00000 0 -5855427.506 16249141.356 -18744652.965 10 0 60634 3600.00000 0 -7462907.475 17741651.416 -16711344.042 10 0 60634 4500.00000 0 -8765993.496 19155990.886 -14352747.804 10 0 60634 5400.00000 0 -9759248.575 20430345.086 -11714800.534 10 0 60634 6300.00000 0 -10449929.355 21505166.360 -8848875.866 10 0 60634 7200.00000 0 -10857411.176 22325710.695 -5810776.552 10 0 60634 8100.00000 0 -11012106.246 22844390.324 -2659639.466 10 0 60634 9000.00000 0 -10953922.399 23022842.640 543223.947 10 0 60634 9900.00000 0 -10730329.395 22833627.853 3735528.258 10 0 60634 10800.00000 0 -10394116.241 22261483.712 6855231.359 10 0 60634 11700.00000 0 -10000935.933 21304084.537 9841744.062 10 0 60634 12600.00000 0 -9606742.698 19972272.907 12637107.820 10 0 60634 13500.00000 0 -9265230.941 18289754.727 15187117.496 10 0 60634 14400.00000 0 -9025384.570 16292270.918 17442367.489 10 0 60634 15300.00000 0 -8929240.208 14026280.868 19359201.396 10 0 60634 16200.00000 0 -9009958.334 11547212.923 20900547.646 10 0 60634 17100.00000 0 -9290283.110 8917354.858 22036626.029 10 0 60634 18000.00000 0 -9781455.058 6203471.863 22745512.632 10 0 60634 18900.00000 0 -10482621.731 3474250.332 23013553.527 10 0 60634 19800.00000 0 -11380770.744 797672.527 22835620.303 10 0 60634 20700.00000 0 -12451187.865 -1761570.343 22215203.371 10 0 60634 21600.00000 0 -13658421.230 -4144520.925 21164341.780 10 0 60634 22500.00000 0 -14957711.884 -6300154.838 19703391.016 10 0 60634 23400.00000 0 -16296831.631 -8187246.503 17860633.075 10 0 60634 24300.00000 0 -17618252.286 -9775825.783 15671735.727 10 0 60634 25200.00000 0 -18861556.632 -11048166.219 13179070.565 10 0 60634 26100.00000 0 -19965991.092 -11999264.778 10430902.056 10 0 60634 27000.00000 0 -20873053.907 -12636793.932 7480462.198 10 0 60634 27900.00000 0 -21529010.781 -12980528.599 4384927.712 10 0 60634 28800.00000 0 -21887232.441 -13061272.321 1204318.790 10 0 60634 29700.00000 0 -21910255.612 -12919327.914 -1999659.843 10 0 60634 30600.00000 0 -21571480.057 -12602577.049 -5164813.430 10 0 60634 31500.00000 0 -20856429.200 -12164249.748 -8229664.045 10 0 60634 32400.00000 0 -19763520.005 -11660478.028 -11134646.282 10 0 60634 33300.00000 0 -18304308.104 -11147737.271 -13823268.159 10 0 60634 34200.00000 0 -16503196.296 -10680283.787 -16243214.222 10 0 60634 35100.00000 0 -14396616.956 -10307697.436 -18347368.894 10 0 60634 36000.00000 0 -12031721.120 -10072633.825 -20094739.704 10 0 60634 36900.00000 0 -9464627.779 -10008881.900 -21451261.927 10 0 60634 37800.00000 0 -6758305.473 -10139809.871 -22390468.588 10 0 60634 38700.00000 0 -3980173.735 -10477266.057 -22894012.438 10 0 60634 39600.00000 0 -1199523.868 -11020982.027 -22952029.372 10 0 60634 40500.00000 0 1515133.904 -11758504.131 -22563335.880 10 0 60634 41400.00000 0 4098686.657 -12665657.193 -21735456.387 10 0 60634 42300.00000 0 6491889.533 -13707521.499 -20484479.569 10 0 60634 43200.00000 0 8643588.318 -14839882.396 -18834746.209 10 0 60634 44100.00000 0 10512601.432 -16011091.681 -16818374.394 10 0 60634 45000.00000 0 12069183.226 -17164262.274 -14474631.214 10 0 60634 45900.00000 0 13296008.130 -18239703.372 -11849163.280 10 0 60634 46800.00000 0 14188635.488 -19177492.896 -8993101.267 10 0 60634 47700.00000 0 14755436.854 -19920078.009 -5962056.447 10 0 60634 48600.00000 0 15016990.399 -20414793.243 -2815029.448 10 0 60634 49500.00000 0 15004969.731 -20616189.257 386746.703 10 0 60634 50400.00000 0 14760575.789 -20488073.318 3581005.722 10 0 60634 51300.00000 0 14332579.883 -20005175.011 6705665.144 10 0 60634 52200.00000 0 13775062.203 -19154366.735 9700036.888 10 0 60634 53100.00000 0 13144942.770 -17935387.584 12506007.119 10 0 60634 54000.00000 0 12499410.169 -16361040.314 15069162.252 10 0 60634 54900.00000 0 11893357.251 -14456853.392 17339839.350 10 0 60634 55800.00000 0 11376932.178 -12260222.515 19274080.954 10 0 60634 56700.00000 0 10993307.798 -9819067.679 20834476.704 10 0 60634 57600.00000 0 10776762.663 -7190061.706 21990876.499 10 0 60634 58500.00000 0 10751153.663 -4436503.741 22720962.612 10 0 60634 59400.00000 0 10928843.536 -1625925.424 23010670.937 10 0 60634 60300.00000 0 11310127.514 1172471.887 22854454.352 10 0 60634 61200.00000 0 11883182.575 3890443.808 22255383.960 10 0 60634 62100.00000 0 12624541.139 6463286.179 21225086.831 10 0 60634 63000.00000 0 13500069.454 8832269.475 19783521.592 10 0 60634 63900.00000 0 14466410.055 10946825.043 17958595.982 10 0 60634 64800.00000 0 15472828.568 12766394.027 15785633.219 10 0 60634 65700.00000 0 16463388.246 14261863.541 13306696.604 10 0 60634 66600.00000 0 17379361.925 15416531.422 10569784.486 10 0 60634 67500.00000 0 18161780.929 16226560.205 7627910.067 10 0 60634 68400.00000 0 18754014.400 16700901.927 4538082.885 10 0 60634 69300.00000 0 19104270.841 16860697.237 1360210.912 10 0 60634 70200.00000 0 19167916.457 16738174.149 -1844056.075 10 0 60634 71100.00000 0 18909512.144 16375092.769 -5012519.747 10 0 60634 72000.00000 0 18304482.376 15820801.406 -8083639.991 10 0 60634 72900.00000 0 17340344.396 15129986.005 -10997731.623 10 0 60634 73800.00000 0 16017444.375 14360207.905 -13698127.477 10 0 60634 74700.00000 0 14349167.818 13569334.021 -16132284.790 10 0 60634 75600.00000 0 12361613.518 12812968.287 -18252812.895 10 0 60634 76500.00000 0 10092742.922 12141993.212 -20018401.740 10 0 60634 77400.00000 0 7591038.906 11600325.918 -21394632.694 10 0 60634 78300.00000 0 4913728.584 11222983.962 -22354655.440 10 0 60634 79200.00000 0 2124643.179 11034543.231 -22879717.427 10 0 60634 80100.00000 0 -708196.644 11048053.622 -22959535.202 10 0 60634 81000.00000 0 -3515169.997 11264458.854 -22592500.082 10 0 60634 81900.00000 0 -6227712.127 11672545.436 -21785713.822 10 0 60634 82800.00000 0 -8780927.499 12249423.353 -20554853.263 10 0 60634 83700.00000 0 -11116050.945 12961518.466 -18923866.316 10 0 60634 84600.00000 0 -13182654.469 13766034.831 -16924504.951 10 0 60634 85500.00000 0 -14940507.895 14612825.065 -14595704.182 10 0 60635 0.00000 0 -16361015.975 15446589.333 -11982819.445 10 0 60635 900.00000 0 -17428173.255 16209309.970 -9136735.980 10 0 60635 1800.00000 0 -18138995.831 16842816.968 -6112871.627 10 0 60635 2700.00000 0 -18503415.725 17291376.582 -2970088.452 10 0 60635 3600.00000 0 -18543641.878 17504191.637 230461.325 10 0 60635 4500.00000 0 -18293017.224 17437707.536 3426533.015 10 0 60635 5400.00000 0 -17794421.684 17057625.823 6556006.303 10 0 60635 6300.00000 0 -17098290.169 16340539.842 9558096.754 10 0 60635 7200.00000 0 -16260330.770 15275123.264 12374537.797 10 0 60635 8100.00000 0 -15339040.651 13862821.364 14950709.939 10 0 60635 9000.00000 0 -14393125.203 12118016.026 17236695.379 10 0 60635 9900.00000 0 -13478929.602 10067657.647 19188237.964 10 0 60635 10800.00000 0 -12647990.793 7750379.380 20767590.732 10 0 60635 11700.00000 0 -11944812.322 5215130.550 21944235.641 10 0 60635 12600.00000 0 -11404954.661 2519385.886 22695462.818 10 0 60635 13500.00000 0 -11053520.129 -272995.593 23006799.309 10 0 60635 14400.00000 0 -10904094.837 -3094174.073 22872280.230 10 0 60635 15300.00000 0 -10958191.005 -5874896.282 22294557.921 10 0 60635 16200.00000 0 -11205212.249 -8547121.714 21284847.582 10 0 60635 17100.00000 0 -11622942.819 -11046600.456 19862710.628 10 0 60635 18000.00000 0 -12178540.157 -13315297.353 18055679.744 10 0 60635 18900.00000 0 -12829989.424 -15303563.462 15898732.349 10 0 60635 19800.00000 0 -13527959.412 -16971966.010 13433621.793 10 0 60635 20700.00000 0 -14217982.591 -18292701.807 10708078.267 10 0 60635 21600.00000 0 -14842868.344 -19250536.089 7774893.823 10 0 60635 22500.00000 0 -15345248.430 -19843228.147 4690908.187 10 0 60635 23400.00000 0 -15670147.862 -20081426.217 1515914.262 10 0 60635 24300.00000 0 -15767472.855 -19988036.095 -1688496.143 10 0 60635 25200.00000 0 -15594310.618 -19597089.926 -4860124.298 10 0 60635 26100.00000 0 -15116943.196 -18952162.548 -7937371.166 10 0 60635 27000.00000 0 -14312489.296 -18104401.925 -10860435.108 10 0 60635 27900.00000 0 -13170103.370 -17110256.517 -13572477.078 10 0 60635 28800.00000 0 -11691679.704 -16028995.399 -16020730.208 10 0 60635 29700.00000 0 -9892029.964 -14920125.798 -18157531.720 10 0 60635 30600.00000 0 -7798524.784 -13840817.151 -19941256.630 10 0 60635 31500.00000 0 -5450212.501 -12843440.617 -21337134.594 10 0 60635 32400.00000 0 -2896450.227 -11973328.119 -22317933.585 10 0 60635 33300.00000 0 -195102.929 -11266845.769 -22864496.768 10 0 60635 34200.00000 0 2589615.471 -10749863.230 -22966121.730 10 0 60635 35100.00000 0 5389569.896 -10436683.863 -22620774.380 10 0 60635 36000.00000 0 8135300.268 -10329480.960 -21835133.013 10 0 60635 36900.00000 0 10758678.229 -10418263.994 -20624461.338 10 0 60635 37800.00000 0 13195513.940 -10681376.285 -19012312.665 10 0 60635 38700.00000 0 15388004.423 -11086502.891 -17030070.726 10 0 60635 39600.00000 0 17286921.358 -11592145.841 -14716335.990 10 0 60635 40500.00000 0 18853447.193 -12149503.811 -12116169.428 10 0 60635 41400.00000 0 20060583.155 -12704676.066 -9280208.705 10 0 60635 42300.00000 0 20894070.830 -13201096.577 -6263674.459 10 0 60635 43200.00000 0 21352789.605 -13582094.361 -3125286.723 10 0 60635 44100.00000 0 21448614.516 -13793470.683 73886.632 10 0 60635 45000.00000 0 21205741.941 -13785983.139 3271625.996 10 0 60635 45900.00000 0 20659513.195 -13517630.715 6405776.501 10 0 60635 46800.00000 0 19854787.226 -12955642.567 9415460.366 10 0 60635 47700.00000 0 18843932.578 -12078086.121 12242260.910 10 0 60635 48600.00000 0 17684524.575 -10875026.407 14831354.915 10 0 60635 49500.00000 0 16436845.676 -9349187.707 17132571.420 10 0 60635 50400.00000 0 15161294.757 -7516089.683 19101356.820 10 0 60635 51300.00000 0 13915814.313 -5403652.207 20699628.319 10 0 60635 52200.00000 0 12753443.221 -3051285.244 21896500.288 10 0 60635 53100.00000 0 11720096.927 -508501.412 22668870.655 10 0 60635 54000.00000 0 10852666.974 2166891.614 23001857.210 10 0 60635 54900.00000 0 10177518.170 4910944.593 22889076.573 10 0 60635 55800.00000 0 9709444.988 7655977.828 22332761.283 10 0 60635 56700.00000 0 9451129.674 10333151.248 21343713.383 10 0 60635 57600.00000 0 9393123.777 12875088.411 19941095.571 10 0 60635 58500.00000 0 9514353.257 15218447.144 18152063.790 10 0 60635 59400.00000 0 9783125.680 17306331.644 16011247.816 10 0 60635 60300.00000 0 10158597.328 19090447.224 13560089.080 10 0 60635 61200.00000 0 10592638.868 20532909.126 10846047.532 10 0 60635 62100.00000 0 11032021.620 21607630.895 7921691.866 10 0 60635 63000.00000 0 11420832.831 22301234.873 4843689.714 10 0 60635 63900.00000 0 11703018.565 22613446.948 1671716.532 10 0 60635 64800.00000 0 11824947.050 22556959.018 -1532696.246 10 0 60635 65700.00000 0 11737884.135 22156764.721 -4707351.883 10 0 60635 66600.00000 0 11400275.764 21448996.013 -7790594.742 10 0 60635 67500.00000 0 10779740.146 20479309.204 -10722508.917 10 0 60635 68400.00000 0 9854684.207 19300888.018 -13446085.497 10 0 60635 69300.00000 0 8615474.540 17972147.568 -15908335.312 10 0 60635 70200.00000 0 7065111.613 16554235.776 -18061325.068 10 0 60635 71100.00000 0 5219376.879 15108437.465 -19863116.232 10 0 60635 72000.00000 0 3106444.577 13693590.505 -21278587.920 10 0 60635 72900.00000 0 765972.578 12363622.914 -22280127.376 10 0 60635 73800.00000 0 -1752291.465 11165314.737 -22848174.240 10 0 60635 74700.00000 0 -4390331.842 10136379.065 -22971607.639 10 0 60635 75600.00000 0 -7084039.545 9303942.995 -22647968.263 10 0 60635 76500.00000 0 -9765650.208 8683492.497 -21883510.772 10 0 60635 77400.00000 0 -12366344.103 8278325.491 -20693085.161 10 0 60635 78300.00000 0 -14818900.112 8079535.889 -19099849.127 10 0 60635 79200.00000 0 -17060293.091 8066528.870 -17134816.762 10 0 60635 80100.00000 0 -19034126.185 8208045.036 -14836252.234 10 0 60635 81000.00000 0 -20692796.514 8463649.438 -12248920.288 10 0 60635 81900.00000 0 -21999303.748 8785621.586 -9423208.348 10 0 60635 82800.00000 0 -22928626.081 9121165.466 -6414137.788 10 0 60635 83700.00000 0 -23468606.484 9414844.848 -3280284.263 10 0 60635 84600.00000 0 -23620312.871 9611139.621 -82628.946 10 0 60635 85500.00000 0 -23397858.141 9657013.779 3116635.997 99